Weather History for Denver Centennial, CO

Change the Weather History Date:

Thursday, March 28, 2013

  Actual Average Record
Temperature  
Mean Temperature 47 °F -  
Max Temperature 62 °F 54 °F 74 °F (2012)
Min Temperature 32 °F 28 °F 14 °F (2009)
Degree Days  
Heating Degree Days 18    
Month to date heating degree days 792  
Moisture  
Dew Point 29 °F    
Average Humidity 49    
Maximum Humidity 75    
Minimum Humidity 23    
Precipitation  
Precipitation 0.00 in - - ()
Month to date precipitation 1.47  
Year to date precipitation 2.16  
Sea Level Pressure  
Sea Level Pressure 30.06 in    
Wind  
Wind Speed 8 mph (SSE)    
Max Wind Speed 17 mph    
Max Gust Speed 21 mph    
Visibility 10 miles    
Events      
Averages and records for this station are not official NWS values.
T = Trace of Precipitation, MM = Missing Value Source: NWS Daily Summary

Daily Weather History Graph

Daily Weather History Graph

Search for Another Location

Airport:

Trip Planner

Search our weather history database for the weather conditions in past years. The results will help you decide how hot, cold, wet, or windy it might be!

Date:

Astronomy

Mar. 28, 2013 Rise Set
Actual Time 6:49 AM MDT 7:19 PM MDT
Civil Twilight 6:22 AM MDT 7:46 PM MDT
Nautical Twilight 5:50 AM MDT 8:18 PM MDT
Astronomical Twilight 5:18 AM MDT 8:51 PM MDT
Moon 9:13 PM MDT (3/28) 7:19 AM MDT (3/28)
Length of Visible Light 13h 24m
Length of Day
12h 30m
Full, 98% of the Moon is Illuminated
Mar 28
Full
Apr 2
Last Quarter
Apr 10
New
Apr 18
First Quarter
Apr 25
Full

Hourly Weather History & Observations

Time (MDT) Temp. Windchill Dew Point Humidity Pressure Visibility Wind Dir Wind Speed Gust Speed Precip Events Conditions
12:53 AM 41.0 °F 33.1 °F 28.9 °F 62% 30.05 in 10.0 mi South 15.0 mph 23.0 mph N/A   Partly Cloudy
1:53 AM 39.0 °F 32.8 °F 28.9 °F 67% 30.04 in 10.0 mi South 9.2 mph - N/A   Scattered Clouds
2:53 AM 37.9 °F 29.6 °F 28.9 °F 70% 30.02 in 10.0 mi SSE 13.8 mph - N/A   Scattered Clouds
3:53 AM 37.0 °F 31.0 °F 28.0 °F 70% 30.03 in 10.0 mi SSE 8.1 mph - N/A   Scattered Clouds
4:53 AM 35.1 °F 31.0 °F 28.0 °F 76% 30.03 in 10.0 mi South 4.6 mph - N/A   Mostly Cloudy
5:53 AM 35.1 °F 32.2 °F 28.0 °F 76% 30.05 in 10.0 mi SSW 3.5 mph - N/A   Mostly Cloudy
6:53 AM 36.0 °F - 27.0 °F 70% 30.05 in 10.0 mi Calm Calm - N/A   Mostly Cloudy
7:53 AM 36.0 °F - 28.0 °F 73% 30.10 in 10.0 mi Calm Calm - N/A   Mostly Cloudy
8:53 AM 39.0 °F - 30.0 °F 70% 30.11 in 10.0 mi Calm Calm - N/A   Mostly Cloudy
9:53 AM 44.1 °F 40.1 °F 30.9 °F 60% 30.12 in 9.0 mi WSW 6.9 mph - N/A   Mostly Cloudy
10:53 AM 48.9 °F - 26.1 °F 41% 30.09 in 10.0 mi Calm Calm - N/A   Mostly Cloudy
11:53 AM 55.9 °F - 28.0 °F 34% 30.06 in 10.0 mi NNE 3.5 mph - N/A   Mostly Cloudy
12:53 PM 57.9 °F - 28.0 °F 32% 30.04 in 10.0 mi NNE 5.8 mph - N/A   Mostly Cloudy
1:53 PM 60.1 °F - 28.0 °F 30% 30.01 in 10.0 mi Variable 5.8 mph - N/A   Mostly Cloudy
2:53 PM 61.0 °F - 23.0 °F 23% 30.00 in 10.0 mi North 4.6 mph - N/A   Mostly Cloudy
3:53 PM 59.0 °F - 28.9 °F 32% 30.01 in 10.0 mi ESE 11.5 mph 17.3 mph N/A   Mostly Cloudy
4:53 PM 57.0 °F - 30.9 °F 37% 30.04 in 10.0 mi ESE 11.5 mph - N/A   Mostly Cloudy
5:53 PM 57.0 °F - 30.0 °F 36% 30.04 in 10.0 mi North - - N/A   Mostly Cloudy
6:53 PM 52.0 °F - 32.0 °F 47% 30.07 in 10.0 mi South 6.9 mph - N/A   Mostly Cloudy
7:53 PM 48.0 °F - 30.9 °F 52% 30.10 in 10.0 mi SSW 3.5 mph - N/A   Mostly Cloudy
8:53 PM 48.9 °F - 30.9 °F 50% 30.10 in 10.0 mi ESE 5.8 mph - N/A   Mostly Cloudy
9:53 PM 44.1 °F 40.8 °F 32.0 °F 63% 30.11 in 10.0 mi SSW 5.8 mph - N/A   Mostly Cloudy
10:53 PM 45.0 °F 41.8 °F 30.9 °F 58% 30.08 in 10.0 mi WSW 5.8 mph - N/A   Mostly Cloudy
11:53 PM 45.0 °F - 30.0 °F 56% 30.07 in 10.0 mi Calm Calm - N/A   Scattered Clouds